| time (UTC) | temp C | wind direction | speed KPH | gust KPH | rain 1hr cm | rain 24hr cm | rain mn cm | humidity % | barometer mb |
| 20260510180049 | 23 | 0 | 3.2 | 11.3 | 0.00 | 0.25 | 0.05 | 56 | 1012.6 |
| 20260510175518 | 23 | 0 | 1.6 | 14.5 | 0.00 | 0.25 | 0.05 | 57 | 1012.5 |
| 20260510175016 | 23 | 360 | 0.0 | 16.1 | 0.00 | 0.25 | 0.05 | 57 | 1012.5 |
| 20260510174537 | 23 | 43 | 0.0 | 16.1 | 0.00 | 0.25 | 0.05 | 57 | 1012.4 |
| 20260510174019 | 23 | 298 | 1.6 | 14.5 | 0.00 | 0.25 | 0.05 | 57 | 1012.5 |
| 20260510173516 | 23 | 0 | 0.0 | 8.0 | 0.00 | 0.25 | 0.05 | 59 | 1012.5 |
| 20260510173035 | 23 | 0 | 0.0 | 17.7 | 0.00 | 0.25 | 0.05 | 59 | 1012.5 |
| 20260510172516 | 22 | 0 | 0.0 | 17.7 | 0.00 | 0.25 | 0.05 | 56 | 1012.4 |
| 20260510172019 | 23 | 234 | 3.2 | 12.9 | 0.00 | 0.25 | 0.05 | 56 | 1012.4 |
| 20260510171540 | 23 | 0 | 0.0 | 8.0 | 0.00 | 0.25 | 0.05 | 60 | 1012.3 |
| 20260510171017 | 23 | 304 | 0.0 | 6.4 | 0.00 | 0.25 | 0.05 | 60 | 1012.3 |
| 20260510170517 | 23 | 327 | 0.0 | 6.4 | 0.00 | 0.25 | 0.05 | 59 | 1012.4 |
| 20260510170036 | 23 | 206 | 0.0 | 4.8 | 0.00 | 0.25 | 0.05 | 61 | 1012.3 |
| 20260510165520 | 22 | 0 | 0.0 | 4.8 | 0.00 | 0.25 | 0.05 | 63 | 1012.3 |
| 20260510165021 | 22 | 0 | 0.0 | 4.8 | 0.00 | 0.25 | 0.05 | 65 | 1012.4 |
| 20260510164545 | 21 | 319 | 0.0 | 3.2 | 0.00 | 0.25 | 0.05 | 67 | 1012.4 |
| 20260510164018 | 21 | 0 | 0.0 | 9.7 | 0.00 | 0.25 | 0.05 | 67 | 1012.5 |
| 20260510163517 | 21 | 0 | 0.0 | 9.7 | 0.00 | 0.25 | 0.05 | 65 | 1012.4 |
| 20260510163030 | 22 | 0 | 0.0 | 6.4 | 0.00 | 0.25 | 0.05 | 67 | 1012.5 |
| 20260510162517 | 21 | 211 | 0.0 | 6.4 | 0.00 | 0.25 | 0.05 | 67 | 1012.5 |
| 20260510162018 | 21 | 0 | 0.0 | 1.6 | 0.00 | 0.25 | 0.05 | 72 | 1012.5 |
| 20260510161535 | 21 | 0 | 0.0 | 1.6 | 0.00 | 0.25 | 0.05 | 67 | 1012.6 |
| 20260510161017 | 21 | 0 | 0.0 | 0.0 | 0.00 | 0.25 | 0.05 | 68 | 1012.7 |
| 20260510160516 | 21 | 0 | 0.0 | 3.2 | 0.00 | 0.25 | 0.05 | 71 | 1012.5 |
| 20260510160038 | 20 | 0 | 0.0 | 3.2 | 0.00 | 0.25 | 0.05 | 74 | 1012.5 |
| 20260510155519 | 20 | 123 | 0.0 | 4.8 | 0.00 | 0.25 | 0.05 | 71 | 1012.5 |
| 20260510155015 | 20 | 0 | 0.0 | 4.8 | 0.00 | 0.25 | 0.05 | 73 | 1012.6 |
| 20260510154537 | 19 | 250 | 0.0 | 4.8 | 0.00 | 0.25 | 0.05 | 74 | 1012.8 |
| 20260510154018 | 19 | 0 | 0.0 | 3.2 | 0.00 | 0.25 | 0.05 | 76 | 1013.0 |
| 20260510153517 | 19 | 0 | 0.0 | 3.2 | 0.00 | 0.25 | 0.05 | 75 | 1013.1 |
| 20260510153035 | 18 | 0 | 0.0 | 3.2 | 0.00 | 0.25 | 0.05 | 76 | 1013.0 |
| 20260510152518 | 18 | 0 | 0.0 | 3.2 | 0.00 | 0.25 | 0.05 | 75 | 1012.9 |
| 20260510152016 | 18 | 0 | 0.0 | 3.2 | 0.00 | 0.25 | 0.05 | 76 | 1013.0 |
| 20260510151538 | 18 | 0 | 0.0 | 3.2 | 0.00 | 0.25 | 0.05 | 74 | 1013.1 |
| 20260510151018 | 18 | 0 | 0.0 | 0.0 | 0.00 | 0.25 | 0.05 | 78 | 1013.2 |
| 20260510150516 | 17 | 0 | 0.0 | 3.2 | 0.00 | 0.25 | 0.05 | 77 | 1013.1 |
| 20260510150047 | 17 | 0 | 0.0 | 4.8 | 0.00 | 0.25 | 0.05 | 82 | 1013.1 |
| 20260510145516 | 16 | 0 | 0.0 | 4.8 | 0.00 | 0.25 | 0.05 | 82 | 1013.1 |
| 20260510145015 | 17 | 0 | 0.0 | 4.8 | 0.00 | 0.25 | 0.05 | 81 | 1013.0 |
| 20260510144537 | 16 | 0 | 0.0 | 6.4 | 0.00 | 0.25 | 0.05 | 83 | 1013.0 |
| 20260510144019 | 16 | 0 | 0.0 | 6.4 | 0.00 | 0.25 | 0.05 | 83 | 1013.1 |
| 20260510143518 | 16 | 0 | 0.0 | 4.8 | 0.00 | 0.25 | 0.05 | 85 | 1013.0 |
| 20260510143038 | 16 | 0 | 0.0 | 1.6 | 0.00 | 0.25 | 0.05 | 86 | 1013.1 |
| 20260510142518 | 15 | 0 | 0.0 | 1.6 | 0.00 | 0.25 | 0.05 | 87 | 1013.1 |
| 20260510142020 | 15 | 0 | 0.0 | 1.6 | 0.00 | 0.25 | 0.05 | 89 | 1013.1 |
| 20260510141533 | 14 | 0 | 0.0 | 1.6 | 0.00 | 0.25 | 0.05 | 89 | 1012.9 |
| 20260510141015 | 14 | 0 | 0.0 | 0.0 | 0.00 | 0.25 | 0.05 | 88 | 1012.9 |
| 20260510140515 | 14 | 0 | 0.0 | 0.0 | 0.00 | 0.25 | 0.05 | 89 | 1012.9 |
| 20260510140030 | 13 | 0 | 0.0 | 0.0 | 0.00 | 0.25 | 0.05 | 93 | 1013.0 |
| 20260510135521 | 13 | 0 | 0.0 | 0.0 | 0.00 | 0.25 | 0.05 | 95 | 1012.9 |
| 20260510135021 | 12 | 0 | 0.0 | 0.0 | 0.00 | 0.25 | 0.05 | 96 | 1013.0 |
| 20260510134536 | 12 | 0 | 0.0 | 0.0 | 0.00 | 0.25 | 0.05 | 95 | 1013.0 |
| 20260510134018 | 12 | 0 | 0.0 | 0.0 | 0.00 | 0.25 | 0.05 | 96 | 1012.8 |
| 20260510133518 | 12 | 0 | 0.0 | 0.0 | 0.00 | 0.25 | 0.05 | 96 | 1012.8 |
| 20260510133034 | 12 | 0 | 0.0 | 0.0 | 0.00 | 0.25 | 0.05 | 96 | 1012.9 |
| 20260510132518 | 12 | 0 | 0.0 | 0.0 | 0.00 | 0.25 | 0.05 | 96 | 1013.1 |
| 20260510132020 | 12 | 0 | 0.0 | 0.0 | 0.00 | 0.25 | 0.05 | 96 | 1013.1 |
| 20260510131535 | 11 | 0 | 0.0 | 0.0 | 0.00 | 0.25 | 0.05 | 96 | 1013.1 |
| 20260510131017 | 11 | 0 | 0.0 | 0.0 | 0.00 | 0.25 | 0.05 | 96 | 1013.2 |
| 20260510130526 | 11 | 0 | 0.0 | 0.0 | 0.00 | 0.25 | 0.05 | 96 | 1013.4 |
| 20260510130034 | 11 | 0 | 0.0 | 0.0 | 0.00 | 0.25 | 0.05 | 96 | 1013.2 |
| 20260510125519 | 11 | 0 | 0.0 | 0.0 | 0.00 | 0.25 | 0.05 | 96 | 1013.2 |
| 20260510125019 | 11 | 0 | 0.0 | 0.0 | 0.00 | 0.25 | 0.05 | 96 | 1013.0 |
| 20260510124536 | 11 | 0 | 0.0 | 0.0 | 0.00 | 0.25 | 0.05 | 96 | 1012.9 |
| 20260510124018 | 11 | 0 | 0.0 | 0.0 | 0.00 | 0.25 | 0.05 | 96 | 1012.7 |
| 20260510123520 | 11 | 0 | 0.0 | 4.8 | 0.00 | 0.25 | 0.05 | 96 | 1012.7 |
| 20260510123036 | 11 | 0 | 0.0 | 4.8 | 0.00 | 0.25 | 0.05 | 96 | 1012.5 |
| 20260510122519 | 11 | 0 | 0.0 | 0.0 | 0.00 | 0.25 | 0.05 | 96 | 1012.5 |
| 20260510122018 | 11 | 0 | 0.0 | 0.0 | 0.00 | 0.25 | 0.05 | 96 | 1012.5 |
| 20260510121534 | 11 | 0 | 0.0 | 0.0 | 0.00 | 0.25 | 0.05 | 96 | 1012.7 |
| 20260510121019 | 11 | 0 | 0.0 | 0.0 | 0.00 | 0.25 | 0.05 | 96 | 1012.1 |
| 20260510120522 | 11 | 0 | 0.0 | 1.6 | 0.00 | 0.25 | 0.05 | 96 | 1012.2 |
| 20260510120035 | 11 | 0 | 0.0 | 1.6 | 0.00 | 0.25 | 0.05 | 96 | 1012.3 |
| 20260510115524 | 11 | 0 | 0.0 | 0.0 | 0.00 | 0.25 | 0.05 | 96 | 1011.9 |
| 20260510115023 | 11 | 0 | 0.0 | 0.0 | 0.00 | 0.25 | 0.05 | 96 | 1012.0 |
| 20260510114542 | 10 | 0 | 0.0 | 0.0 | 0.00 | 0.25 | 0.05 | 96 | 1012.1 |
| 20260510114017 | 10 | 0 | 0.0 | 0.0 | 0.00 | 0.25 | 0.05 | 96 | 1012.2 |
| 20260510113517 | 10 | 0 | 0.0 | 0.0 | 0.00 | 0.25 | 0.05 | 96 | 1011.9 |
| 20260510113036 | 10 | 0 | 0.0 | 0.0 | 0.00 | 0.25 | 0.05 | 96 | 1012.1 |
| 20260510112518 | 10 | 0 | 0.0 | 0.0 | 0.00 | 0.25 | 0.05 | 96 | 1012.1 |
| 20260510112018 | 10 | 0 | 0.0 | 0.0 | 0.00 | 0.25 | 0.05 | 96 | 1012.2 |
| 20260510111539 | 10 | 0 | 0.0 | 0.0 | 0.00 | 0.25 | 0.05 | 96 | 1012.2 |
| 20260510111018 | 10 | 0 | 0.0 | 0.0 | 0.03 | 0.25 | 0.05 | 96 | 1012.1 |
| 20260510110519 | 10 | 0 | 0.0 | 0.0 | 0.03 | 0.25 | 0.05 | 96 | 1012.0 |
| 20260510110042 | 10 | 0 | 0.0 | 0.0 | 0.03 | 0.25 | 0.05 | 96 | 1012.0 |
| 20260510105519 | 10 | 0 | 0.0 | 0.0 | 0.03 | 0.25 | 0.05 | 96 | 1011.8 |
| 20260510105017 | 10 | 0 | 0.0 | 0.0 | 0.03 | 0.25 | 0.05 | 96 | 1011.5 |
| 20260510104534 | 10 | 0 | 0.0 | 0.0 | 0.03 | 0.25 | 0.05 | 96 | 1011.6 |
| 20260510104019 | 10 | 0 | 0.0 | 0.0 | 0.03 | 0.25 | 0.05 | 96 | 1011.6 |
| 20260510103518 | 10 | 0 | 0.0 | 0.0 | 0.03 | 0.25 | 0.05 | 96 | 1011.6 |
| 20260510103040 | 10 | 0 | 0.0 | 0.0 | 0.03 | 0.25 | 0.05 | 96 | 1011.4 |
| 20260510102517 | 10 | 0 | 0.0 | 0.0 | 0.03 | 0.25 | 0.05 | 96 | 1011.4 |
| 20260510102019 | 10 | 0 | 0.0 | 0.0 | 0.03 | 0.25 | 0.05 | 96 | 1011.5 |
| 20260510101536 | 10 | 0 | 0.0 | 0.0 | 0.03 | 0.25 | 0.05 | 96 | 1011.6 |
| 20260510101019 | 10 | 0 | 0.0 | 0.0 | 0.00 | 0.23 | 0.03 | 96 | 1011.4 |
| 20260510100517 | 10 | 0 | 0.0 | 0.0 | 0.00 | 0.23 | 0.03 | 96 | 1011.6 |
| 20260510100043 | 10 | 0 | 0.0 | 0.0 | 0.00 | 0.23 | 0.03 | 96 | 1011.4 |
| 20260510095524 | 10 | 0 | 0.0 | 0.0 | 0.00 | 0.23 | 0.03 | 96 | 1011.3 |
| 20260510095018 | 10 | 0 | 0.0 | 0.0 | 0.00 | 0.23 | 0.03 | 96 | 1011.3 |
| 20260510094544 | 10 | 0 | 0.0 | 0.0 | 0.00 | 0.23 | 0.03 | 96 | 1011.4 |
| 20260510094018 | 10 | 0 | 0.0 | 0.0 | 0.00 | 0.23 | 0.03 | 96 | 1011.2 |
| 20260510093517 | 10 | 0 | 0.0 | 0.0 | 0.00 | 0.23 | 0.03 | 96 | 1011.3 |
| 20260510093036 | 10 | 0 | 0.0 | 0.0 | 0.00 | 0.23 | 0.03 | 96 | 1011.4 |
| 20260510092520 | 10 | 0 | 0.0 | 0.0 | 0.00 | 0.23 | 0.03 | 96 | 1011.5 |
| 20260510092019 | 10 | 0 | 0.0 | 0.0 | 0.00 | 0.23 | 0.03 | 96 | 1011.5 |
| 20260510091542 | 10 | 0 | 0.0 | 0.0 | 0.00 | 0.23 | 0.03 | 96 | 1011.4 |
| 20260510091019 | 10 | 0 | 0.0 | 0.0 | 0.00 | 0.23 | 0.03 | 96 | 1011.5 |
| 20260510090519 | 10 | 0 | 0.0 | 0.0 | 0.00 | 0.23 | 0.03 | 96 | 1011.4 |
| 20260510090041 | 10 | 0 | 0.0 | 1.6 | 0.00 | 0.23 | 0.03 | 96 | 1011.5 |
| 20260510085518 | 10 | 0 | 0.0 | 1.6 | 0.00 | 0.23 | 0.03 | 96 | 1011.5 |
| 20260510085018 | 10 | 0 | 0.0 | 1.6 | 0.00 | 0.23 | 0.03 | 96 | 1011.6 |
| 20260510084536 | 10 | 0 | 0.0 | 3.2 | 0.00 | 0.23 | 0.03 | 96 | 1011.8 |
| 20260510084018 | 10 | 0 | 0.0 | 4.8 | 0.00 | 0.23 | 0.03 | 96 | 1011.6 |
| 20260510083518 | 10 | 0 | 0.0 | 4.8 | 0.00 | 0.23 | 0.03 | 96 | 1011.5 |
| 20260510083051 | 10 | 0 | 0.0 | 4.8 | 0.00 | 0.23 | 0.03 | 96 | 1011.6 |
| 20260510082519 | 10 | 0 | 0.0 | 4.8 | 0.00 | 0.23 | 0.03 | 96 | 1011.4 |
| 20260510082022 | 10 | 0 | 0.0 | 4.8 | 0.00 | 0.23 | 0.03 | 96 | 1011.6 |
| 20260510081537 | 10 | 0 | 0.0 | 4.8 | 0.00 | 0.23 | 0.03 | 96 | 1011.6 |
| 20260510081018 | 10 | 0 | 0.0 | 0.0 | 0.00 | 0.23 | 0.03 | 96 | 1011.3 |
| 20260510080520 | 10 | 0 | 0.0 | 0.0 | 0.00 | 0.23 | 0.03 | 96 | 1011.1 |
| 20260510080033 | 10 | 0 | 0.0 | 0.0 | 0.00 | 0.23 | 0.03 | 96 | 1011.0 |
| 20260510075519 | 10 | 0 | 0.0 | 0.0 | 0.00 | 0.23 | 0.03 | 95 | 1010.9 |
| 20260510075017 | 10 | 0 | 0.0 | 0.0 | 0.00 | 0.23 | 0.03 | 95 | 1010.8 |
| 20260510074547 | 10 | 0 | 0.0 | 0.0 | 0.00 | 0.23 | 0.03 | 95 | 1010.8 |
| 20260510074039 | 10 | 0 | 0.0 | 0.0 | 0.00 | 0.23 | 0.03 | 95 | 1010.8 |
| 20260510073518 | 10 | 0 | 0.0 | 0.0 | 0.00 | 0.23 | 0.03 | 95 | 1010.8 |
| 20260510073045 | 10 | 0 | 0.0 | 0.0 | 0.00 | 0.23 | 0.03 | 95 | 1010.8 |
| 20260510072520 | 10 | 0 | 0.0 | 0.0 | 0.00 | 0.23 | 0.03 | 95 | 1010.8 |
| 20260510072020 | 10 | 0 | 0.0 | 0.0 | 0.00 | 0.23 | 0.03 | 95 | 1010.7 |
| 20260510071539 | 10 | 0 | 0.0 | 0.0 | 0.00 | 0.23 | 0.03 | 95 | 1010.7 |
| 20260510071019 | 10 | 0 | 0.0 | 0.0 | 0.00 | 0.23 | 0.03 | 95 | 1010.8 |
| 20260510070519 | 10 | 0 | 0.0 | 0.0 | 0.00 | 0.23 | 0.03 | 95 | 1010.7 |
| 20260510070034 | 10 | 0 | 0.0 | 1.6 | 0.00 | 0.23 | 0.03 | 95 | 1010.7 |
| 20260510065519 | 10 | 0 | 0.0 | 4.8 | 0.00 | 0.23 | 0.03 | 95 | 1010.8 |
| 20260510065024 | 10 | 0 | 0.0 | 4.8 | 0.00 | 0.23 | 0.03 | 95 | 1010.9 |
| 20260510064540 | 10 | 0 | 0.0 | 4.8 | 0.00 | 0.23 | 0.03 | 95 | 1011.0 |
| 20260510064018 | 10 | 0 | 0.0 | 1.6 | 0.00 | 0.23 | 0.03 | 95 | 1010.8 |
| 20260510063518 | 10 | 0 | 0.0 | 1.6 | 0.00 | 0.23 | 0.03 | 95 | 1010.8 |
| 20260510063035 | 10 | 0 | 0.0 | 0.0 | 0.00 | 0.23 | 0.03 | 95 | 1010.9 |
| 20260510062518 | 10 | 0 | 0.0 | 0.0 | 0.00 | 0.23 | 0.03 | 95 | 1010.7 |
| 20260510062016 | 10 | 0 | 0.0 | 0.0 | 0.00 | 0.23 | 0.03 | 95 | 1010.8 |
| 20260510061536 | 10 | 0 | 0.0 | 0.0 | 0.00 | 0.23 | 0.03 | 95 | 1010.7 |
| 20260510061018 | 10 | 0 | 0.0 | 0.0 | 0.00 | 0.23 | 0.03 | 95 | 1010.7 |
| 20260510060521 | 10 | 0 | 0.0 | 0.0 | 0.00 | 0.23 | 0.03 | 95 | 1010.6 |
| 20260510060041 | 10 | 0 | 0.0 | 0.0 | 0.03 | 0.23 | 0.03 | 95 | 1010.7 |
| 20260510055518 | 10 | 0 | 0.0 | 0.0 | 0.03 | 0.23 | 0.03 | 95 | 1010.6 |
| 20260510055019 | 10 | 0 | 0.0 | 0.0 | 0.03 | 0.23 | 0.03 | 95 | 1010.8 |
| 20260510054539 | 10 | 0 | 0.0 | 0.0 | 0.03 | 0.23 | 0.03 | 95 | 1010.7 |
| 20260510054023 | 10 | 0 | 0.0 | 0.0 | 0.03 | 0.23 | 0.03 | 95 | 1010.7 |
| 20260510053518 | 10 | 0 | 0.0 | 0.0 | 0.03 | 0.23 | 0.03 | 95 | 1010.8 |
| 20260510053034 | 10 | 0 | 0.0 | 0.0 | 0.03 | 0.23 | 0.03 | 95 | 1010.7 |
| 20260510052519 | 10 | 0 | 0.0 | 0.0 | 0.03 | 0.23 | 0.03 | 95 | 1010.7 |
| 20260510052019 | 10 | 0 | 0.0 | 0.0 | 0.03 | 0.23 | 0.03 | 95 | 1010.8 |
| 20260510051536 | 10 | 0 | 0.0 | 0.0 | 0.03 | 0.23 | 0.03 | 95 | 1010.8 |
| 20260510051019 | 10 | 0 | 0.0 | 0.0 | 0.03 | 0.23 | 0.03 | 95 | 1010.9 |
| 20260510050520 | 10 | 0 | 0.0 | 0.0 | 0.03 | 0.23 | 0.03 | 95 | 1010.9 |
| 20260510050037 | 10 | 0 | 0.0 | 0.0 | 0.00 | 0.20 | 0.00 | 95 | 1011.0 |
| 20260510045521 | 10 | 0 | 0.0 | 0.0 | 0.00 | 0.20 | 0.00 | 95 | 1010.9 |
| 20260510045021 | 10 | 0 | 0.0 | 0.0 | 0.00 | 0.20 | 0.00 | 95 | 1011.1 |
| 20260510044535 | 10 | 0 | 0.0 | 0.0 | 0.00 | 0.20 | 0.00 | 95 | 1011.0 |
| 20260510044019 | 10 | 0 | 0.0 | 0.0 | 0.00 | 0.20 | 0.00 | 95 | 1011.0 |
| 20260510043519 | 10 | 0 | 0.0 | 0.0 | 0.00 | 0.20 | 0.00 | 95 | 1011.1 |
| 20260510043037 | 10 | 0 | 0.0 | 0.0 | 0.00 | 0.20 | 0.00 | 94 | 1011.0 |
| 20260510042522 | 10 | 0 | 0.0 | 0.0 | 0.00 | 0.20 | 0.00 | 94 | 1010.9 |
| 20260510042019 | 9 | 0 | 0.0 | 0.0 | 0.00 | 0.20 | 0.00 | 94 | 1010.9 |
| 20260510041535 | 9 | 0 | 0.0 | 0.0 | 0.00 | 0.20 | 0.00 | 94 | 1011.0 |
| 20260510041019 | 9 | 0 | 0.0 | 0.0 | 0.00 | 0.20 | 0.00 | 94 | 1011.0 |
| 20260510040519 | 9 | 0 | 0.0 | 0.0 | 0.00 | 0.20 | 0.00 | 94 | 1011.0 |
| 20260510040030 | 9 | 0 | 0.0 | 0.0 | 0.00 | 0.20 | 0.00 | 94 | 1011.0 |
| 20260510035518 | 9 | 0 | 0.0 | 0.0 | 0.00 | 0.20 | 0.20 | 94 | 1011.0 |
| 20260510035017 | 9 | 0 | 0.0 | 0.0 | 0.00 | 0.20 | 0.20 | 94 | 1010.9 |
| 20260510034535 | 9 | 0 | 0.0 | 0.0 | 0.00 | 0.20 | 0.20 | 94 | 1010.8 |
| 20260510034019 | 9 | 0 | 0.0 | 0.0 | 0.00 | 0.20 | 0.20 | 94 | 1011.0 |
| 20260510033522 | 9 | 0 | 0.0 | 0.0 | 0.00 | 0.20 | 0.20 | 94 | 1010.7 |
| 20260510033036 | 9 | 0 | 0.0 | 0.0 | 0.00 | 0.20 | 0.20 | 94 | 1010.8 |
| 20260510032519 | 9 | 0 | 0.0 | 0.0 | 0.00 | 0.20 | 0.20 | 94 | 1010.8 |
| 20260510032016 | 9 | 0 | 0.0 | 0.0 | 0.00 | 0.20 | 0.20 | 94 | 1010.8 |
| 20260510031534 | 9 | 0 | 0.0 | 0.0 | 0.00 | 0.20 | 0.20 | 93 | 1010.7 |
| 20260510031016 | 9 | 0 | 0.0 | 0.0 | 0.00 | 0.20 | 0.20 | 93 | 1010.7 |
| 20260510030522 | 9 | 0 | 0.0 | 0.0 | 0.00 | 0.20 | 0.20 | 93 | 1010.7 |
| 20260510030044 | 9 | 0 | 0.0 | 0.0 | 0.00 | 0.20 | 0.20 | 93 | 1010.6 |
| 20260510025521 | 9 | 0 | 0.0 | 0.0 | 0.00 | 0.20 | 0.20 | 93 | 1010.6 |
| 20260510025018 | 9 | 0 | 0.0 | 0.0 | 0.00 | 0.20 | 0.20 | 93 | 1010.6 |
| 20260510024530 | 9 | 0 | 0.0 | 0.0 | 0.00 | 0.20 | 0.20 | 93 | 1010.6 |
| 20260510024019 | 9 | 0 | 0.0 | 0.0 | 0.00 | 0.20 | 0.20 | 92 | 1010.5 |
| 20260510023516 | 9 | 0 | 0.0 | 0.0 | 0.00 | 0.20 | 0.20 | 92 | 1010.6 |
| 20260510023035 | 10 | 0 | 0.0 | 0.0 | 0.03 | 0.20 | 0.20 | 92 | 1010.5 |
| 20260510022516 | 10 | 0 | 0.0 | 0.0 | 0.03 | 0.20 | 0.20 | 92 | 1010.5 |
| 20260510022018 | 10 | 0 | 0.0 | 0.0 | 0.03 | 0.20 | 0.20 | 92 | 1010.6 |
| 20260510021535 | 10 | 0 | 0.0 | 0.0 | 0.03 | 0.20 | 0.20 | 93 | 1010.8 |
| 20260510021018 | 10 | 0 | 0.0 | 0.0 | 0.03 | 0.20 | 0.20 | 92 | 1010.6 |
| 20260510020522 | 10 | 0 | 0.0 | 0.0 | 0.03 | 0.20 | 0.20 | 92 | 1010.5 |
| 20260510020035 | 10 | 0 | 0.0 | 0.0 | 0.03 | 0.20 | 0.20 | 93 | 1010.7 |
| 20260510015517 | 10 | 0 | 0.0 | 0.0 | 0.03 | 0.20 | 0.20 | 93 | 1010.6 |
| 20260510015018 | 10 | 0 | 0.0 | 0.0 | 0.03 | 0.20 | 0.20 | 92 | 1010.4 |
| 20260510014535 | 10 | 0 | 0.0 | 0.0 | 0.03 | 0.20 | 0.20 | 92 | 1010.3 |
| 20260510014017 | 10 | 0 | 0.0 | 0.0 | 0.03 | 0.20 | 0.20 | 92 | 1010.5 |
| 20260510013518 | 10 | 0 | 0.0 | 0.0 | 0.03 | 0.20 | 0.20 | 92 | 1010.6 |
| 20260510013033 | 10 | 0 | 0.0 | 0.0 | 0.00 | 0.18 | 0.18 | 92 | 1010.6 |
| 20260510012517 | 11 | 0 | 0.0 | 0.0 | 0.00 | 0.18 | 0.18 | 92 | 1010.6 |
| 20260510012019 | 11 | 0 | 0.0 | 0.0 | 0.00 | 0.18 | 0.18 | 92 | 1010.6 |
| 20260510011545 | 11 | 0 | 0.0 | 0.0 | 0.00 | 0.18 | 0.18 | 92 | 1010.4 |
| 20260510011016 | 11 | 0 | 0.0 | 0.0 | 0.00 | 0.18 | 0.18 | 92 | 1010.4 |
| 20260510010518 | 11 | 0 | 0.0 | 0.0 | 0.00 | 0.18 | 0.18 | 92 | 1010.4 |
| 20260510010035 | 11 | 0 | 0.0 | 0.0 | 0.00 | 0.18 | 0.18 | 92 | 1010.4 |
| 20260510005518 | 11 | 0 | 0.0 | 0.0 | 0.00 | 0.18 | 0.18 | 92 | 1010.3 |
| 20260510005016 | 11 | 0 | 0.0 | 0.0 | 0.00 | 0.18 | 0.18 | 92 | 1010.2 |
| 20260510004536 | 11 | 0 | 0.0 | 0.0 | 0.00 | 0.18 | 0.18 | 91 | 1010.1 |
| 20260510004018 | 11 | 0 | 0.0 | 0.0 | 0.00 | 0.18 | 0.18 | 91 | 1010.0 |
| 20260510003517 | 11 | 0 | 0.0 | 0.0 | 0.00 | 0.18 | 0.18 | 91 | 1010.1 |
| 20260510003040 | 11 | 0 | 0.0 | 0.0 | 0.03 | 0.18 | 0.18 | 91 | 1010.0 |
| 20260510002520 | 12 | 0 | 0.0 | 0.0 | 0.03 | 0.18 | 0.18 | 91 | 1010.0 |
| 20260510002017 | 12 | 0 | 0.0 | 0.0 | 0.03 | 0.18 | 0.18 | 91 | 1009.9 |
| 20260510001530 | 12 | 0 | 0.0 | 0.0 | 0.03 | 0.18 | 0.18 | 90 | 1010.0 |
| 20260510001017 | 12 | 0 | 0.0 | 0.0 | 0.03 | 0.18 | 0.18 | 90 | 1010.0 |
| 20260510000517 | 12 | 0 | 0.0 | 0.0 | 0.03 | 0.18 | 0.18 | 90 | 1009.9 |
| 20260510000036 | 12 | 0 | 0.0 | 0.0 | 0.03 | 0.18 | 0.18 | 90 | 1010.0 |
| 20260509235518 | 12 | 0 | 0.0 | 0.0 | 0.03 | 0.18 | 0.18 | 90 | 1010.0 |
| 20260509235018 | 12 | 0 | 0.0 | 0.0 | 0.03 | 0.18 | 0.18 | 90 | 1010.1 |
| 20260509234541 | 12 | 0 | 0.0 | 0.0 | 0.03 | 0.18 | 0.18 | 90 | 1010.0 |
| 20260509234019 | 13 | 0 | 0.0 | 0.0 | 0.03 | 0.18 | 0.18 | 90 | 1010.0 |
| 20260509233517 | 13 | 0 | 0.0 | 0.0 | 0.03 | 0.18 | 0.18 | 90 | 1010.1 |
| 20260509233037 | 13 | 0 | 0.0 | 0.0 | 0.00 | 0.15 | 0.15 | 89 | 1010.0 |
| 20260509232516 | 13 | 0 | 0.0 | 0.0 | 0.03 | 0.15 | 0.15 | 89 | 1010.0 |
| 20260509232023 | 13 | 0 | 0.0 | 0.0 | 0.03 | 0.15 | 0.15 | 89 | 1009.9 |
| 20260509231539 | 13 | 0 | 0.0 | 0.0 | 0.03 | 0.15 | 0.15 | 89 | 1009.9 |
| 20260509231018 | 13 | 0 | 0.0 | 0.0 | 0.03 | 0.15 | 0.15 | 90 | 1009.9 |
| 20260509230518 | 13 | 0 | 0.0 | 0.0 | 0.03 | 0.15 | 0.15 | 90 | 1009.9 |
| 20260509230031 | 13 | 0 | 0.0 | 0.0 | 0.03 | 0.15 | 0.15 | 90 | 1009.8 |
| 20260509225518 | 13 | 0 | 0.0 | 3.2 | 0.03 | 0.15 | 0.15 | 90 | 1009.9 |
| 20260509225018 | 13 | 0 | 0.0 | 3.2 | 0.03 | 0.15 | 0.15 | 90 | 1009.9 |
| 20260509224537 | 13 | 0 | 0.0 | 3.2 | 0.03 | 0.15 | 0.15 | 90 | 1010.0 |
| 20260509224019 | 13 | 0 | 0.0 | 0.0 | 0.05 | 0.15 | 0.15 | 91 | 1010.1 |
| 20260509223520 | 13 | 0 | 0.0 | 0.0 | 0.05 | 0.15 | 0.15 | 91 | 1010.2 |
| 20260509223036 | 13 | 0 | 0.0 | 0.0 | 0.05 | 0.15 | 0.15 | 91 | 1010.2 |
| 20260509222518 | 13 | 0 | 0.0 | 0.0 | 0.03 | 0.13 | 0.13 | 91 | 1010.1 |
| 20260509222018 | 12 | 0 | 0.0 | 3.2 | 0.03 | 0.13 | 0.13 | 91 | 1010.0 |
| 20260509221535 | 12 | 0 | 0.0 | 3.2 | 0.05 | 0.13 | 0.13 | 91 | 1010.0 |
| 20260509221018 | 12 | 0 | 0.0 | 3.2 | 0.05 | 0.13 | 0.13 | 91 | 1010.0 |
| 20260509220518 | 12 | 0 | 0.0 | 0.0 | 0.05 | 0.13 | 0.13 | 91 | 1009.9 |
| 20260509220034 | 12 | 0 | 0.0 | 0.0 | 0.05 | 0.13 | 0.13 | 92 | 1010.2 |
| 20260509215518 | 12 | 0 | 0.0 | 0.0 | 0.08 | 0.13 | 0.13 | 92 | 1010.3 |
| 20260509215017 | 12 | 0 | 0.0 | 0.0 | 0.08 | 0.13 | 0.13 | 92 | 1010.4 |
| 20260509214534 | 12 | 0 | 0.0 | 0.0 | 0.08 | 0.13 | 0.13 | 91 | 1010.2 |
| 20260509214018 | 12 | 0 | 0.0 | 0.0 | 0.05 | 0.10 | 0.10 | 91 | 1010.6 |
| 20260509213518 | 12 | 0 | 0.0 | 0.0 | 0.08 | 0.10 | 0.10 | 92 | 1010.4 |
| 20260509213035 | 12 | 0 | 0.0 | 0.0 | 0.08 | 0.10 | 0.10 | 91 | 1010.4 |
| 20260509212517 | 12 | 0 | 0.0 | 0.0 | 0.08 | 0.10 | 0.10 | 91 | 1010.1 |
| 20260509212020 | 12 | 0 | 0.0 | 0.0 | 0.08 | 0.10 | 0.10 | 91 | 1010.2 |
| 20260509211532 | 12 | 0 | 0.0 | 0.0 | 0.05 | 0.08 | 0.08 | 90 | 1010.3 |
| 20260509211019 | 12 | 0 | 0.0 | 0.0 | 0.05 | 0.08 | 0.08 | 90 | 1010.1 |
| 20260509210520 | 13 | 0 | 0.0 | 0.0 | 0.05 | 0.08 | 0.08 | 90 | 1010.2 |
| 20260509210044 | 13 | 0 | 0.0 | 0.0 | 0.05 | 0.08 | 0.08 | 90 | 1010.3 |
| 20260509205518 | 13 | 0 | 0.0 | 0.0 | 0.03 | 0.05 | 0.05 | 89 | 1010.2 |
| 20260509205018 | 13 | 0 | 0.0 | 0.0 | 0.03 | 0.05 | 0.05 | 89 | 1010.1 |
| 20260509204540 | 12 | 0 | 0.0 | 0.0 | 0.03 | 0.05 | 0.05 | 88 | 1009.9 |
| 20260509204022 | 12 | 0 | 0.0 | 0.0 | 0.03 | 0.05 | 0.05 | 87 | 1010.0 |
| 20260509203517 | 13 | 0 | 0.0 | 1.6 | 0.00 | 0.03 | 0.03 | 87 | 1010.1 |
| 20260509203040 | 13 | 0 | 0.0 | 8.0 | 0.00 | 0.03 | 0.03 | 87 | 1010.3 |
| 20260509202518 | 13 | 0 | 0.0 | 8.0 | 0.03 | 0.03 | 0.03 | 85 | 1010.2 |
| 20260509202019 | 13 | 284 | 0.0 | 11.3 | 0.03 | 0.03 | 0.03 | 85 | 1010.3 |
| 20260509201536 | 13 | 0 | 0.0 | 11.3 | 0.03 | 0.03 | 0.03 | 86 | 1010.3 |
| 20260509201022 | 13 | 0 | 0.0 | 3.2 | 0.03 | 0.03 | 0.03 | 87 | 1010.1 |
| 20260509200518 | 13 | 0 | 0.0 | 3.2 | 0.03 | 0.03 | 0.03 | 87 | 1010.4 |
| 20260509200034 | 13 | 0 | 0.0 | 4.8 | 0.03 | 0.03 | 0.03 | 87 | 1010.5 |
| 20260509195517 | 13 | 0 | 0.0 | 6.4 | 0.03 | 0.03 | 0.03 | 87 | 1010.3 |
| 20260509195018 | 13 | 0 | 0.0 | 6.4 | 0.03 | 0.03 | 0.03 | 88 | 1010.5 |
| 20260509194531 | 13 | 0 | 0.0 | 6.4 | 0.03 | 0.03 | 0.03 | 88 | 1010.4 |
| 20260509194016 | 13 | 0 | 0.0 | 6.4 | 0.03 | 0.03 | 0.03 | 87 | 1010.8 |
| 20260509193523 | 13 | 0 | 0.0 | 6.4 | 0.03 | 0.03 | 0.03 | 87 | 1011.0 |
| 20260509193040 | 13 | 0 | 0.0 | 4.8 | 0.03 | 0.03 | 0.03 | 87 | 1010.9 |
| 20260509192517 | 13 | 0 | 0.0 | 4.8 | 0.00 | 0.00 | 0.00 | 87 | 1011.0 |
| 20260509192016 | 13 | 0 | 0.0 | 8.0 | 0.00 | 0.00 | 0.00 | 86 | 1011.1 |
| 20260509191539 | 13 | 0 | 1.6 | 8.0 | 0.00 | 0.00 | 0.00 | 85 | 1011.0 |
| 20260509191023 | 13 | 0 | 0.0 | 12.9 | 0.00 | 0.00 | 0.00 | 85 | 1011.1 |
| 20260509190618 | 13 | 0 | 0.0 | 12.9 | 0.00 | 0.00 | 0.00 | 84 | 1011.0 |
| 20260509190034 | 13 | 0 | 0.0 | 4.8 | 0.00 | 0.00 | 0.00 | 84 | 1011.0 |
| 20260509185518 | 13 | 0 | 0.0 | 11.3 | 0.00 | 0.00 | 0.00 | 83 | 1011.2 |
| 20260509185018 | 14 | 0 | 0.0 | 14.5 | 0.00 | 0.00 | 0.00 | 82 | 1011.0 |
| 20260509184550 | 14 | 0 | 0.0 | 14.5 | 0.00 | 0.00 | 0.00 | 81 | 1011.0 |
| 20260509184019 | 14 | 0 | 0.0 | 14.5 | 0.00 | 0.00 | 0.00 | 79 | 1011.0 |
| 20260509183519 | 14 | 0 | 1.6 | 14.5 | 0.00 | 0.00 | 0.00 | 79 | 1011.1 |
| 20260509183036 | 14 | 0 | 0.0 | 8.0 | 0.00 | 0.00 | 0.00 | 79 | 1011.0 |
| 20260509182518 | 14 | 0 | 0.0 | 14.5 | 0.00 | 0.00 | 0.00 | 79 | 1011.0 |
| 20260509182019 | 14 | 346 | 1.6 | 14.5 | 0.00 | 0.00 | 0.00 | 77 | 1011.0 |
| 20260509181549 | 15 | 0 | 0.0 | 8.0 | 0.00 | 0.00 | 0.00 | 78 | 1010.9 |
| 20260509181020 | 15 | 310 | 0.0 | 8.0 | 0.00 | 0.00 | 0.00 | 80 | 1010.9 |
| 20260509180518 | 15 | 0 | 0.0 | 8.0 | 0.00 | 0.00 | 0.00 | 79 | 1011.0 |